Torna al catalogo

FENGYUN 1C DEB

AttivoSSO
NORAD 36664·DEBRIS·🇨🇳 China

Lanciato May 10, 1999 da Taiyuan Satellite Launch Center

Loading…

Prossimi Passaggi (prossime 24 ore)

TLE

AggiornatoSource: Space-Track

Epoca: Sep 14, 2026, 07:09 UTC

1 36664U 99025DYJ 26257.29856442  .00000108  00000-0  63390-4 0  9996
2 36664  98.5838 278.2364 0172748  25.6594 335.3029 14.18067980676569

Traccia FENGYUN 1C DEB in tempo reale con AllMySat

Download on the App Store